Time,TemperatureF,DewpointF,PressureIn,WindDirection,WindDirectionDegrees,WindSpeedMPH,WindSpeedGustMPH,Humidity,HourlyPrecipIn,Conditions,Clouds,dailyrainin,SolarRadiationWatts/m^2,SoftwareType,DateUTC
2013-03-23 00:00:00,64.5,63.6,29.96,ESE,104,3.4,3.4,97,0.00,CLR,,1.30,0.0,WeatherDisplay:10.37,2013-03-23 04:00:00,
2013-03-23 00:05:00,64.5,63.6,29.96,ESE,104,3.4,3.4,97,0.00,CLR,,1.30,0.0,WeatherDisplay:10.37,2013-03-23 04:05:00,
2013-03-23 00:10:00,64.5,63.6,29.96,ESE,104,3.4,3.4,97,0.00,CLR,,1.30,0.0,WeatherDisplay:10.37,2013-03-23 04:10:00,
2013-03-23 00:27:00,64.5,63.6,29.95,ESE,104,1.1,1.1,97,0.00,CLR,,1.30,0.0,WeatherDisplay:10.37,2013-03-23 04:27:00,
2013-03-23 00:38:00,64.6,64.0,29.95,ESE,104,3.4,3.4,98,0.00,CLR,,1.30,0.0,WeatherDisplay:10.37,2013-03-23 04:38:00,
2013-03-23 00:55:00,64.8,64.2,29.95,ESE,104,3.4,3.4,98,0.00,CLR,,1.30,0.0,WeatherDisplay:10.37,2013-03-23 04:55:00,
2013-03-23 01:00:00,64.9,64.3,29.94,ESE,104,3.4,3.4,98,0.00,CLR,,0.00,0.0,WeatherDisplay:10.37,2013-03-23 05:00:00,
2013-03-23 01:05:00,64.9,64.3,29.94,ESE,104,4.6,4.6,98,0.00,CLR,,0.00,0.0,WeatherDisplay:10.37,2013-03-23 05:05:00,
2013-03-23 01:26:00,64.9,64.3,29.93,ESE,117,5.8,5.8,98,0.00,CLR,,0.00,0.0,WeatherDisplay:10.37,2013-03-23 05:26:00,
2013-03-23 01:33:00,64.9,64.3,29.93,ESE,118,9.2,9.2,98,0.00,CLR,,0.00,0.0,WeatherDisplay:10.37,2013-03-23 05:33:00,
2013-03-23 01:46:00,65.0,64.4,29.93,ESE,116,5.8,5.8,98,0.00,CLR,,0.00,0.0,WeatherDisplay:10.37,2013-03-23 05:46:00,
2013-03-23 01:56:00,65.3,64.7,29.93,SE,136,5.0,5.0,98,0.00,CLR,,0.00,0.0,WeatherDisplay:10.37,2013-03-23 05:56:00,
2013-03-23 02:00:00,65.3,64.7,29.92,ESE,121,10.0,10.0,98,0.00,CLR,,0.00,0.0,WeatherDisplay:10.37,2013-03-23 06:00:00,
2013-03-23 02:01:00,65.3,64.7,29.92,SE,129,6.9,6.9,98,0.00,CLR,,0.00,0.0,WeatherDisplay:10.37,2013-03-23 06:01:00,
2013-03-23 02:06:00,65.3,64.7,29.92,ESE,122,5.8,5.8,98,0.00,CLR,,0.00,0.0,WeatherDisplay:10.37,2013-03-23 06:06:00,
2013-03-23 02:21:00,65.2,64.6,29.92,SE,127,9.2,9.2,98,0.00,CLR,,0.00,0.0,WeatherDisplay:10.37,2013-03-23 06:21:00,
2013-03-23 02:34:00,65.2,64.6,29.92,ESE,119,8.1,8.1,98,0.00,CLR,,0.00,0.0,WeatherDisplay:10.37,2013-03-23 06:34:00,
2013-03-23 02:39:00,65.2,64.6,29.92,SE,128,8.1,8.1,98,0.00,CLR,,0.00,0.0,WeatherDisplay:10.37,2013-03-23 06:39:00,
2013-03-23 02:47:00,65.2,64.6,29.91,ESE,112,8.1,8.1,98,0.00,CLR,,0.00,0.0,WeatherDisplay:10.37,2013-03-23 06:47:00,
2013-03-23 02:54:00,65.1,64.5,29.91,ESE,117,6.9,6.9,98,0.00,CLR,,0.00,0.0,WeatherDisplay:10.37,2013-03-23 06:54:00,
2013-03-23 02:59:00,65.1,64.5,29.91,ESE,123,7.0,7.0,98,0.00,CLR,,0.00,0.0,WeatherDisplay:10.37,2013-03-23 06:59:00,
2013-03-23 03:00:00,65.2,64.6,29.90,ESE,108,4.6,4.6,98,0.00,CLR,,0.00,0.0,WeatherDisplay:10.37,2013-03-23 07:00:00,
2013-03-23 03:04:00,65.1,64.5,29.91,ESE,107,9.2,9.2,98,0.00,CLR,,0.00,0.0,WeatherDisplay:10.37,2013-03-23 07:04:00,
2013-03-23 03:09:00,65.1,64.5,29.90,ESE,114,4.6,4.6,98,0.00,CLR,,0.00,0.0,WeatherDisplay:10.37,2013-03-23 07:09:00,
2013-03-23 03:36:00,65.0,64.4,29.89,SSE,153,9.2,9.2,98,0.00,CLR,,0.00,0.0,WeatherDisplay:10.37,2013-03-23 07:36:00,
2013-03-23 03:48:00,65.0,64.4,29.88,SE,143,7.0,7.0,98,0.00,CLR,,0.00,0.0,WeatherDisplay:10.37,2013-03-23 07:48:00,
2013-03-23 03:56:00,65.1,64.5,29.88,SE,131,6.9,6.9,98,0.00,CLR,,0.00,0.0,WeatherDisplay:10.37,2013-03-23 07:56:00,
2013-03-23 04:00:00,65.1,64.5,29.88,SE,126,9.2,9.2,98,0.00,CLR,,0.00,0.0,WeatherDisplay:10.37,2013-03-23 08:00:00,
2013-03-23 04:01:00,65.1,64.5,29.88,ESE,109,9.2,9.2,98,0.00,CLR,,0.00,0.0,WeatherDisplay:10.37,2013-03-23 08:01:00,
2013-03-23 04:06:00,65.1,64.5,29.88,SE,133,6.0,6.0,98,0.00,CLR,,0.00,0.0,WeatherDisplay:10.37,2013-03-23 08:06:00,
2013-03-23 04:18:00,65.1,64.5,29.88,ESE,122,6.9,6.9,98,0.00,CLR,,0.00,0.0,WeatherDisplay:10.37,2013-03-23 08:18:00,
2013-03-23 04:23:00,65.2,64.6,29.87,ESE,123,8.1,8.1,98,0.00,CLR,,0.00,0.0,WeatherDisplay:10.37,2013-03-23 08:23:00,
2013-03-23 04:44:00,65.3,64.7,29.87,ESE,115,9.0,9.0,98,0.00,CLR,,0.00,0.0,WeatherDisplay:10.37,2013-03-23 08:44:00,
2013-03-23 04:55:00,65.3,64.7,29.88,SE,136,9.0,9.0,98,0.00,CLR,,0.00,0.0,WeatherDisplay:10.37,2013-03-23 08:55:00,
2013-03-23 05:00:00,65.4,64.8,29.88,ESE,108,8.1,8.1,98,0.00,CLR,,0.00,0.0,WeatherDisplay:10.37,2013-03-23 09:00:00,
2013-03-23 05:05:00,65.3,64.7,29.88,SE,130,8.1,8.1,98,0.00,CLR,,0.00,0.0,WeatherDisplay:10.37,2013-03-23 09:05:00,
2013-03-23 05:14:00,65.4,64.8,29.88,ESE,102,8.1,8.1,98,0.01,RA,,0.01,0.0,WeatherDisplay:10.37,2013-03-23 09:14:00,
2013-03-23 05:33:00,65.4,64.8,29.88,ESE,123,5.8,5.8,98,0.01,CLR,,0.01,0.0,WeatherDisplay:10.37,2013-03-23 09:33:00,
2013-03-23 05:41:00,65.4,64.8,29.88,SE,130,5.0,5.0,98,0.01,CLR,,0.01,0.0,WeatherDisplay:10.37,2013-03-23 09:41:00,
2013-03-23 05:47:00,65.3,64.7,29.89,SSE,148,8.1,8.1,98,0.01,CLR,,0.01,0.0,WeatherDisplay:10.37,2013-03-23 09:47:00,
2013-03-23 05:56:00,65.3,64.7,29.89,SSE,163,9.2,9.2,98,0.01,CLR,,0.01,0.0,WeatherDisplay:10.37,2013-03-23 09:56:00,
2013-03-23 06:00:00,65.3,64.7,29.89,SE,146,8.1,8.1,98,0.01,CLR,,0.01,0.0,WeatherDisplay:10.37,2013-03-23 10:00:00,
2013-03-23 06:01:00,65.3,64.7,29.89,SE,133,8.1,8.1,98,0.01,CLR,,0.01,0.0,WeatherDisplay:10.37,2013-03-23 10:01:00,
2013-03-23 06:06:00,65.3,64.7,29.89,SE,139,8.1,8.1,98,0.01,CLR,,0.01,0.0,WeatherDisplay:10.37,2013-03-23 10:06:00,
2013-03-23 06:25:00,65.3,64.7,29.88,SSE,147,8.1,8.1,98,0.00,CLR,,0.01,0.0,WeatherDisplay:10.37,2013-03-23 10:25:00,
2013-03-23 06:35:00,65.3,64.7,29.88,SE,136,11.5,11.5,98,0.00,CLR,,0.01,0.0,WeatherDisplay:10.37,2013-03-23 10:35:00,
2013-03-23 06:52:00,65.4,64.8,29.88,SE,127,9.2,9.2,98,0.00,CLR,,0.01,0.0,WeatherDisplay:10.37,2013-03-23 10:52:00,
2013-03-23 06:58:00,65.5,64.9,29.88,SE,141,9.2,9.2,98,0.00,CLR,,0.01,0.0,WeatherDisplay:10.37,2013-03-23 10:58:00,
2013-03-23 07:00:00,65.7,65.1,29.89,SE,132,9.2,9.2,98,0.00,CLR,,0.01,0.0,WeatherDisplay:10.37,2013-03-23 11:00:00,
2013-03-23 07:03:00,65.5,64.9,29.89,ESE,110,6.9,6.9,98,0.00,CLR,,0.01,0.0,WeatherDisplay:10.37,2013-03-23 11:03:00,
2013-03-23 07:08:00,65.6,65.0,29.89,SE,145,5.0,5.3,98,0.00,CLR,,0.01,0.0,WeatherDisplay:10.37,2013-03-23 11:08:00,
2013-03-23 07:13:00,65.8,65.2,29.89,ESE,107,8.1,8.1,98,0.00,CLR,,0.01,0.0,WeatherDisplay:10.37,2013-03-23 11:13:00,
2013-03-23 07:56:00,66.4,65.8,29.89,SSE,156,9.2,9.2,98,0.00,CLR,,0.01,16.0,WeatherDisplay:10.37,2013-03-23 11:56:00,
2013-03-23 08:00:00,66.6,66.0,29.90,SSE,149,6.9,6.9,98,0.00,OVC,,0.01,19.0,WeatherDisplay:10.37,2013-03-23 12:00:00,
2013-03-23 08:01:00,66.5,65.9,29.90,SE,134,4.6,4.6,98,0.00,OVC,,0.01,16.0,WeatherDisplay:10.37,2013-03-23 12:01:00,
2013-03-23 08:06:00,66.6,66.0,29.90,SE,144,9.2,9.2,98,0.00,OVC,,0.01,16.0,WeatherDisplay:10.37,2013-03-23 12:06:00,
2013-03-23 08:15:00,66.6,66.0,29.90,SSE,155,6.9,6.9,98,0.00,OVC,,0.01,32.0,WeatherDisplay:10.37,2013-03-23 12:15:00,
2013-03-23 08:24:00,66.6,66.0,29.89,SSE,157,10.3,10.3,98,0.00,OVC,,0.01,44.0,WeatherDisplay:10.37,2013-03-23 12:24:00,
2013-03-23 08:34:00,66.6,66.0,29.89,SE,141,11.5,11.5,98,0.00,OVC,,0.01,120.0,WeatherDisplay:10.37,2013-03-23 12:34:00,
2013-03-23 08:39:00,66.9,66.3,29.89,SE,136,9.2,9.2,98,0.00,BKN,,0.01,139.0,WeatherDisplay:10.37,2013-03-23 12:39:00,
2013-03-23 08:44:00,67.1,66.5,29.89,ESE,117,11.5,11.5,98,0.00,OVC,,0.01,90.0,WeatherDisplay:10.37,2013-03-23 12:44:00,
2013-03-23 08:54:00,67.4,66.8,29.88,SE,133,10.3,10.3,98,0.00,OVC,,0.01,105.0,WeatherDisplay:10.37,2013-03-23 12:54:00,
2013-03-23 08:59:00,67.6,67.0,29.89,SSE,150,10.0,10.0,98,0.00,OVC,,0.01,113.0,WeatherDisplay:10.37,2013-03-23 12:59:00,
2013-03-23 09:00:00,68.2,67.3,29.88,SE,143,8.1,8.5,97,0.00,OVC,,0.01,123.0,WeatherDisplay:10.37,2013-03-23 13:00:00,
2013-03-23 09:04:00,67.9,67.3,29.89,SE,129,10.3,10.3,98,0.00,OVC,,0.01,130.0,WeatherDisplay:10.37,2013-03-23 13:04:00,
2013-03-23 09:09:00,68.2,67.3,29.89,ESE,115,9.0,9.0,97,0.00,OVC,,0.01,123.0,WeatherDisplay:10.37,2013-03-23 13:09:00,
2013-03-23 09:34:00,68.9,67.7,29.87,SSE,157,9.2,9.2,96,0.00,OVC,,0.01,134.0,WeatherDisplay:10.37,2013-03-23 13:34:00,
2013-03-23 09:44:00,69.4,68.2,29.87,SE,126,8.1,8.1,96,0.00,OVC,,0.01,195.0,WeatherDisplay:10.37,2013-03-23 13:44:00,
2013-03-23 09:56:00,69.8,68.6,29.88,SE,134,6.9,6.9,96,0.00,OVC,,0.01,207.0,WeatherDisplay:10.37,2013-03-23 13:56:00,
2013-03-23 09:57:00,69.9,68.7,29.88,SSE,157,6.9,6.9,96,0.00,OVC,,0.01,193.0,WeatherDisplay:10.37,2013-03-23 13:57:00,
2013-03-23 10:00:00,70.4,68.9,29.89,SE,142,8.1,8.1,95,0.00,OVC,,0.01,204.0,WeatherDisplay:10.37,2013-03-23 14:00:00,
2013-03-23 10:02:00,70.1,68.6,29.88,SSE,148,5.8,5.8,95,0.00,OVC,,0.01,123.0,WeatherDisplay:10.37,2013-03-23 14:02:00,
2013-03-23 10:07:00,70.4,68.9,29.88,SSE,148,10.3,10.3,95,0.00,OVC,,0.01,204.0,WeatherDisplay:10.37,2013-03-23 14:07:00,
2013-03-23 10:23:00,71.5,70.0,29.89,SE,143,4.6,4.6,95,0.00,OVC,,0.01,260.0,WeatherDisplay:10.37,2013-03-23 14:23:00,
2013-03-23 10:36:00,73.7,71.2,29.89,SE,146,4.6,4.6,92,0.00,BKN,,0.01,396.0,WeatherDisplay:10.37,2013-03-23 14:36:00,
2013-03-23 10:56:00,74.7,71.9,29.90,SSE,159,8.1,8.1,91,0.00,OVC,,0.01,197.0,WeatherDisplay:10.37,2013-03-23 14:56:00,
2013-03-23 11:00:00,74.9,72.1,29.90,SSE,161,7.0,7.0,91,0.00,OVC,,0.01,193.0,WeatherDisplay:10.37,2013-03-23 15:00:00,
2013-03-23 11:01:00,74.5,71.7,29.90,SSW,195,4.6,4.6,91,0.00,OVC,,0.01,202.0,WeatherDisplay:10.37,2013-03-23 15:01:00,
2013-03-23 11:06:00,74.8,72.3,29.90,SSW,204,3.4,3.4,92,0.00,OVC,,0.01,234.0,WeatherDisplay:10.37,2013-03-23 15:06:00,
2013-03-23 11:19:00,75.2,72.4,29.90,SE,132,5.0,5.0,91,0.00,OVC,,0.01,236.0,WeatherDisplay:10.37,2013-03-23 15:19:00,
2013-03-23 11:34:00,76.0,72.9,29.89,SE,129,9.2,9.2,90,0.00,OVC,,0.01,367.0,WeatherDisplay:10.37,2013-03-23 15:34:00,
2013-03-23 11:45:00,76.1,72.6,29.89,SW,222,5.8,5.8,89,0.00,OVC,,0.01,297.0,WeatherDisplay:10.37,2013-03-23 15:45:00,
2013-03-23 11:53:00,76.3,73.1,29.89,SSE,165,6.9,6.9,90,0.00,OVC,,0.01,367.0,WeatherDisplay:10.37,2013-03-23 15:53:00,
2013-03-23 11:58:00,76.7,73.2,29.89,SSE,155,11.5,11.5,89,0.00,OVC,,0.01,396.0,WeatherDisplay:10.37,2013-03-23 15:58:00,
2013-03-23 12:00:00,76.7,73.2,29.89,SSW,212,5.8,5.8,89,0.00,OVC,,0.01,285.0,WeatherDisplay:10.37,2013-03-23 16:00:00,
2013-03-23 12:03:00,76.6,73.1,29.89,SW,229,4.6,4.6,89,0.00,OVC,,0.01,250.0,WeatherDisplay:10.37,2013-03-23 16:03:00,
2013-03-23 12:08:00,76.7,73.2,29.89,SW,220,9.2,9.2,89,0.00,OVC,,0.01,327.0,WeatherDisplay:10.37,2013-03-23 16:08:00,
2013-03-23 12:25:00,78.4,74.2,29.88,SSE,153,11.5,11.5,87,0.00,OVC,,0.01,308.0,WeatherDisplay:10.37,2013-03-23 16:25:00,
2013-03-23 12:30:00,79.1,74.5,29.88,SSW,209,6.0,6.0,86,0.00,OVC,,0.01,568.0,WeatherDisplay:10.37,2013-03-23 16:30:00,
2013-03-23 12:35:00,79.3,74.0,29.88,WSW,245,5.8,5.8,84,0.00,OVC,,0.01,366.0,WeatherDisplay:10.37,2013-03-23 16:35:00,
2013-03-23 12:45:00,79.2,73.9,29.88,South,173,10.3,10.3,84,0.00,OVC,,0.01,306.0,WeatherDisplay:10.37,2013-03-23 16:45:00,
2013-03-23 12:56:00,80.1,74.1,29.88,SW,228,4.0,4.0,82,0.00,OVC,,0.01,244.0,WeatherDisplay:10.37,2013-03-23 16:56:00,
2013-03-23 13:00:00,80.8,74.4,29.87,SSW,208,10.3,10.3,81,0.00,SCT,,0.01,847.0,WeatherDisplay:10.37,2013-03-23 17:00:00,
2013-03-23 13:01:00,79.6,74.0,29.87,WSW,243,10.0,10.0,83,0.00,OVC,,0.01,243.0,WeatherDisplay:10.37,2013-03-23 17:01:00,
2013-03-23 13:06:00,80.1,74.1,29.87,SSW,205,10.3,10.3,82,0.00,SCT,,0.01,853.0,WeatherDisplay:10.37,2013-03-23 17:06:00,
2013-03-23 13:20:00,80.7,74.0,29.86,WSW,247,11.5,11.5,80,0.00,SCT,,0.01,889.0,WeatherDisplay:10.37,2013-03-23 17:20:00,
2013-03-23 13:29:00,81.0,74.2,29.87,SSW,207,9.2,9.2,80,0.00,SCT,,0.01,939.0,WeatherDisplay:10.37,2013-03-23 17:29:00,
2013-03-23 13:39:00,80.5,74.1,29.86,SSE,155,8.1,8.1,81,0.00,BKN,,0.01,520.0,WeatherDisplay:10.37,2013-03-23 17:39:00,
2013-03-23 13:49:00,80.3,73.6,29.86,South,169,11.5,11.5,80,0.00,SCT,,0.01,687.0,WeatherDisplay:10.37,2013-03-23 17:49:00,
2013-03-23 13:54:00,80.6,73.9,29.86,SSE,152,9.2,9.2,80,0.00,SCT,,0.01,868.0,WeatherDisplay:10.37,2013-03-23 17:54:00,
2013-03-23 13:59:00,80.5,73.8,29.86,SW,215,10.3,10.3,80,0.00,SCT,,0.01,800.0,WeatherDisplay:10.37,2013-03-23 17:59:00,
2013-03-23 14:00:00,80.9,73.8,29.85,SW,229,8.1,8.1,79,0.00,SCT,,0.01,867.0,WeatherDisplay:10.37,2013-03-23 18:00:00,
2013-03-23 14:04:00,80.6,74.2,29.86,SW,220,8.1,8.1,81,0.00,SCT,,0.01,872.0,WeatherDisplay:10.37,2013-03-23 18:04:00,
2013-03-23 14:09:00,81.0,74.2,29.85,SSW,192,8.1,8.1,80,0.00,SCT,,0.01,867.0,WeatherDisplay:10.37,2013-03-23 18:09:00,
2013-03-23 14:14:00,81.2,74.8,29.85,SSW,208,6.0,6.0,81,0.00,SCT,,0.01,868.0,WeatherDisplay:10.37,2013-03-23 18:14:00,
2013-03-23 14:24:00,80.9,74.1,29.85,SW,227,7.0,7.0,80,0.00,SCT,,0.01,872.0,WeatherDisplay:10.37,2013-03-23 18:24:00,
2013-03-23 14:49:00,80.7,74.3,29.83,WSW,241,9.2,9.2,81,0.00,FEW,,0.01,853.0,WeatherDisplay:10.37,2013-03-23 18:49:00,
2013-03-23 14:56:00,81.4,74.3,29.84,SSE,154,11.5,11.5,79,0.00,FEW,,0.01,856.0,WeatherDisplay:10.37,2013-03-23 18:56:00,
2013-03-23 15:00:00,81.6,74.5,29.83,WSW,243,6.9,6.9,79,0.00,FEW,,0.01,823.0,WeatherDisplay:10.37,2013-03-23 19:00:00,
2013-03-23 15:01:00,81.5,74.4,29.83,South,182,6.9,6.9,79,0.00,FEW,,0.01,710.0,WeatherDisplay:10.37,2013-03-23 19:01:00,
2013-03-23 15:06:00,81.6,74.1,29.83,SSW,197,10.3,10.3,78,0.00,FEW,,0.01,856.0,WeatherDisplay:10.37,2013-03-23 19:06:00,
2013-03-23 15:34:00,81.1,74.0,29.81,WSW,241,6.9,6.9,79,0.00,FEW,,0.01,830.0,WeatherDisplay:10.37,2013-03-23 19:34:00,
2013-03-23 15:50:00,81.5,73.6,29.80,SW,222,7.0,7.0,77,0.00,OVC,,0.01,401.0,WeatherDisplay:10.37,2013-03-23 19:50:00,
2013-03-23 15:56:00,81.8,73.9,29.80,SSW,211,3.4,3.4,77,0.00,CLR,,0.01,867.0,WeatherDisplay:10.37,2013-03-23 19:56:00,
2013-03-23 16:00:00,80.9,73.4,29.80,SE,144,4.6,4.6,78,0.00,OVC,,0.01,244.0,WeatherDisplay:10.37,2013-03-23 20:00:00,
2013-03-23 16:01:00,81.9,73.6,29.80,SW,233,10.0,10.0,76,0.00,CLR,,0.01,789.0,WeatherDisplay:10.37,2013-03-23 20:01:00,
2013-03-23 16:06:00,81.6,73.3,29.80,SSW,209,8.0,8.0,76,0.00,OVC,,0.01,264.0,WeatherDisplay:10.37,2013-03-23 20:06:00,
2013-03-23 16:11:00,80.8,73.7,29.80,South,186,9.2,9.2,79,0.00,BKN,,0.01,399.0,WeatherDisplay:10.37,2013-03-23 20:11:00,
2013-03-23 16:16:00,80.2,73.1,29.80,SE,146,5.8,5.8,79,0.00,BKN,,0.01,274.0,WeatherDisplay:10.37,2013-03-23 20:16:00,
2013-03-23 16:24:00,79.3,73.0,29.79,SSE,164,6.9,6.9,81,0.00,BKN,,0.01,397.0,WeatherDisplay:10.37,2013-03-23 20:24:00,
2013-03-23 16:35:00,79.2,72.9,29.79,South,189,4.6,4.6,81,0.00,OVC,,0.01,202.0,WeatherDisplay:10.37,2013-03-23 20:35:00,
2013-03-23 16:41:00,78.4,73.2,29.79,SSE,157,4.6,4.6,84,0.00,BKN,,0.01,274.0,WeatherDisplay:10.37,2013-03-23 20:41:00,
2013-03-23 16:48:00,78.9,72.9,29.79,SSE,161,10.3,10.3,82,0.00,OVC,,0.01,199.0,WeatherDisplay:10.37,2013-03-23 20:48:00,
2013-03-23 16:56:00,78.4,72.8,29.79,SW,221,3.4,3.4,83,0.00,OVC,,0.01,197.0,WeatherDisplay:10.37,2013-03-23 20:56:00,
2013-03-23 17:00:00,78.0,72.4,29.79,South,189,5.8,5.8,83,0.00,OVC,,0.01,183.0,WeatherDisplay:10.37,2013-03-23 21:00:00,
2013-03-23 17:01:00,78.2,72.6,29.79,SSW,205,3.0,3.0,83,0.00,OVC,,0.01,141.0,WeatherDisplay:10.37,2013-03-23 21:01:00,
2013-03-23 17:06:00,78.0,72.4,29.79,South,183,4.6,4.6,83,0.00,OVC,,0.01,139.0,WeatherDisplay:10.37,2013-03-23 21:06:00,
2013-03-23 17:23:00,77.9,72.3,29.79,SSW,192,11.5,11.5,83,0.00,OVC,,0.01,127.0,WeatherDisplay:10.37,2013-03-23 21:23:00,
2013-03-23 17:40:00,77.3,72.1,29.79,SW,235,5.0,5.0,84,0.00,BKN,,0.01,160.0,WeatherDisplay:10.37,2013-03-23 21:40:00,
2013-03-23 17:49:00,77.7,72.1,29.79,SE,144,5.8,5.8,83,0.00,CLR,,0.01,385.0,WeatherDisplay:10.37,2013-03-23 21:49:00,
2013-03-23 17:55:00,78.6,72.6,29.78,SSW,211,4.6,4.6,82,0.00,CLR,,0.01,443.0,WeatherDisplay:10.37,2013-03-23 21:55:00,
2013-03-23 18:00:00,79.0,72.7,29.78,SE,144,7.0,7.0,81,0.00,CLR,,0.01,244.0,WeatherDisplay:10.37,2013-03-23 22:00:00,
2013-03-23 18:05:00,78.7,72.4,29.78,SSE,159,5.8,5.8,81,0.00,SCT,,0.01,134.0,WeatherDisplay:10.37,2013-03-23 22:05:00,
2013-03-23 18:11:00,78.4,72.4,29.79,SSW,196,5.8,5.8,82,0.00,SCT,,0.01,258.0,WeatherDisplay:10.37,2013-03-23 22:11:00,
2013-03-23 18:16:00,78.8,72.8,29.79,South,178,3.4,3.4,82,0.00,CLR,,0.01,186.0,WeatherDisplay:10.37,2013-03-23 22:16:00,
2013-03-23 18:29:00,77.2,72.0,29.78,WSW,244,5.0,5.0,84,0.00,CLR,,0.01,139.0,WeatherDisplay:10.37,2013-03-23 22:29:00,
2013-03-23 18:56:00,75.6,71.5,29.78,South,186,5.8,5.8,87,0.00,CLR,,0.01,53.0,WeatherDisplay:10.37,2013-03-23 22:56:00,
2013-03-23 19:00:00,74.6,71.1,29.79,South,170,3.4,3.4,89,0.00,CLR,,0.01,26.0,WeatherDisplay:10.37,2013-03-23 23:00:00,
2013-03-23 19:01:00,75.0,71.2,29.79,SSW,210,5.0,5.0,88,0.00,CLR,,0.01,33.0,WeatherDisplay:10.37,2013-03-23 23:01:00,
2013-03-23 19:06:00,74.6,71.1,29.79,South,191,4.6,4.6,89,0.00,CLR,,0.01,53.0,WeatherDisplay:10.37,2013-03-23 23:06:00,
2013-03-23 19:21:00,74.1,71.0,29.80,SSE,154,4.6,4.6,90,0.00,OVC,,0.01,25.0,WeatherDisplay:10.37,2013-03-23 23:21:00,
2013-03-23 19:27:00,73.8,71.0,29.80,South,190,1.1,1.1,91,0.00,OVC,,0.01,18.0,WeatherDisplay:10.37,2013-03-23 23:27:00,
2013-03-23 19:37:00,73.4,70.9,29.80,SSW,209,3.4,3.4,92,0.00,OVC,,0.01,7.0,WeatherDisplay:10.37,2013-03-23 23:37:00,
2013-03-23 19:45:00,73.3,70.8,29.80,SSW,204,3.4,3.4,92,0.00,OVC,,0.01,0.0,WeatherDisplay:10.37,2013-03-23 23:45:00,
2013-03-23 19:50:00,73.1,70.6,29.80,SSE,167,3.4,3.4,92,0.00,OVC,,0.01,0.0,WeatherDisplay:10.37,2013-03-23 23:50:00,
2013-03-23 19:55:00,73.0,70.9,29.80,SE,134,3.4,3.4,93,0.00,OVC,,0.01,0.0,WeatherDisplay:10.37,2013-03-23 23:55:00,
2013-03-23 20:00:00,72.8,70.7,29.80,SSW,196,5.8,5.8,93,0.00,OVC,,0.01,0.0,WeatherDisplay:10.37,2013-03-24 00:00:00,
2013-03-23 20:05:00,72.7,70.6,29.80,SSE,163,4.6,4.6,93,0.00,OVC,,0.01,0.0,WeatherDisplay:10.37,2013-03-24 00:05:00,
2013-03-23 20:24:00,72.5,70.7,29.80,SSE,160,3.4,3.4,94,0.00,OVC,,0.01,0.0,WeatherDisplay:10.37,2013-03-24 00:24:00,
2013-03-23 20:46:00,71.8,70.0,29.80,SSE,152,5.8,5.8,94,0.00,OVC,,0.01,0.0,WeatherDisplay:10.37,2013-03-24 00:46:00,
2013-03-23 20:54:00,71.6,70.1,29.80,SSE,160,9.2,9.2,95,0.00,OVC,,0.01,0.0,WeatherDisplay:10.37,2013-03-24 00:54:00,
2013-03-23 20:59:00,71.6,70.1,29.80,SE,146,5.8,5.8,95,0.00,OVC,,0.01,0.0,WeatherDisplay:10.37,2013-03-24 00:59:00,
2013-03-23 21:00:00,71.5,70.0,29.81,SE,127,4.6,4.6,95,0.00,CLR,,0.01,0.0,WeatherDisplay:10.37,2013-03-24 01:00:00,
2013-03-23 21:04:00,71.5,70.0,29.81,SSE,155,6.9,6.9,95,0.00,CLR,,0.01,0.0,WeatherDisplay:10.37,2013-03-24 01:04:00,
2013-03-23 21:09:00,71.5,70.0,29.81,SE,127,4.6,4.6,95,0.00,CLR,,0.01,0.0,WeatherDisplay:10.37,2013-03-24 01:09:00,
2013-03-23 21:15:00,71.5,70.0,29.81,SE,136,5.8,5.8,95,0.00,CLR,,0.01,0.0,WeatherDisplay:10.37,2013-03-24 01:15:00,
2013-03-23 21:20:00,71.6,70.4,29.81,SE,132,8.1,8.1,96,0.00,CLR,,0.01,0.0,WeatherDisplay:10.37,2013-03-24 01:20:00,
2013-03-23 21:29:00,71.5,70.0,29.81,SSE,155,8.1,8.1,95,0.00,CLR,,0.01,0.0,WeatherDisplay:10.37,2013-03-24 01:29:00,
2013-03-23 21:39:00,71.4,70.2,29.81,SSE,156,6.0,6.0,96,0.00,CLR,,0.01,0.0,WeatherDisplay:10.37,2013-03-24 01:39:00,
2013-03-23 21:49:00,71.4,70.2,29.82,SE,138,6.0,6.0,96,0.00,CLR,,0.01,0.0,WeatherDisplay:10.37,2013-03-24 01:49:00,
2013-03-23 21:56:00,71.5,70.3,29.82,SSE,148,5.8,5.8,96,0.00,CLR,,0.01,0.0,WeatherDisplay:10.37,2013-03-24 01:56:00,
2013-03-23 22:00:00,71.7,70.5,29.82,SE,130,5.8,5.8,96,0.00,CLR,,0.01,0.0,WeatherDisplay:10.37,2013-03-24 02:00:00,
2013-03-23 22:01:00,71.5,70.3,29.82,SSE,149,4.6,4.6,96,0.00,CLR,,0.01,0.0,WeatherDisplay:10.37,2013-03-24 02:01:00,
2013-03-23 22:06:00,71.6,70.4,29.82,SE,134,9.2,9.2,96,0.00,CLR,,0.01,0.0,WeatherDisplay:10.37,2013-03-24 02:06:00,
2013-03-23 22:20:00,71.5,70.3,29.82,SSE,149,8.1,8.1,96,0.00,CLR,,0.01,0.0,WeatherDisplay:10.37,2013-03-24 02:20:00,
2013-03-23 22:33:00,71.3,70.1,29.83,SE,145,10.3,10.3,96,0.00,CLR,,0.01,0.0,WeatherDisplay:10.37,2013-03-24 02:33:00,
2013-03-23 22:39:00,71.3,70.1,29.83,SE,141,11.5,11.5,96,0.00,CLR,,0.01,0.0,WeatherDisplay:10.37,2013-03-24 02:39:00,
2013-03-23 22:44:00,71.2,70.0,29.83,SE,138,5.8,5.8,96,0.00,CLR,,0.01,0.0,WeatherDisplay:10.37,2013-03-24 02:44:00,
2013-03-23 22:49:00,71.2,70.0,29.82,SSE,151,5.8,5.8,96,0.00,CLR,,0.01,0.0,WeatherDisplay:10.37,2013-03-24 02:49:00,
2013-03-23 22:56:00,71.1,69.9,29.83,ESE,111,5.8,5.8,96,0.00,CLR,,0.01,0.0,WeatherDisplay:10.37,2013-03-24 02:56:00,
2013-03-23 23:00:00,71.1,70.2,29.82,SE,142,5.8,5.8,97,0.00,CLR,,0.01,0.0,WeatherDisplay:10.37,2013-03-24 03:00:00,
2013-03-23 23:01:00,71.1,70.2,29.82,SE,146,6.9,6.9,97,0.00,CLR,,0.01,0.0,WeatherDisplay:10.37,2013-03-24 03:01:00,
2013-03-23 23:06:00,71.1,70.2,29.82,SE,130,9.2,9.2,97,0.00,CLR,,0.01,0.0,WeatherDisplay:10.37,2013-03-24 03:06:00,
2013-03-23 23:13:00,71.1,70.2,29.82,ESE,119,8.1,8.1,97,0.00,CLR,,0.01,0.0,WeatherDisplay:10.37,2013-03-24 03:13:00,
2013-03-23 23:24:00,71.0,70.1,29.82,SE,145,5.8,5.8,97,0.00,CLR,,0.01,0.0,WeatherDisplay:10.37,2013-03-24 03:24:00,
2013-03-23 23:30:00,71.0,70.1,29.81,SSE,148,9.2,9.2,97,0.00,CLR,,0.01,0.0,WeatherDisplay:10.37,2013-03-24 03:30:00,
2013-03-23 23:55:00,71.0,70.1,29.81,SE,125,6.9,6.9,97,0.00,CLR,,0.01,0.0,WeatherDisplay:10.37,2013-03-24 03:55:00,